Flag for U.S.A. Weather past 2 weeks in Vallejo, California, U.S.A.

Now
53 °F

Mostly cloudy.


Feels Like: 51 °F
Forecast: 51 / 57 °F
Wind: 6 mph from Southeast

Location: Napa County Airport

Current Time: Dec 19, 2014 at 1:04:20 AM

Latest Report: Dec 18, 2014 at 11:54 PM


Visibility: 8 mi

Pressure: 30.13 "Hg

Humidity: 89%

Dew point: 50 °F

Location of VallejoLocation

Historic Weather in Vallejo — Graph

°F

Vallejo temperature yesterday

Maximum temperature yesterday: 56 °F (at 1:54 PM)
Minimum temperature yesterday: 50 °F (at 12:54 AM)
Average temperature yesterday: 52 °F

Past Weeks' High & Low Weather Summary

 TemperatureHumidityPressure
High64 °F (Dec 4, 11:54 AM)100% (Dec 4, 1:04 AM)30.23 "Hg (Dec 4, 1:04 AM)
Low39 °F (Dec 13, 5:54 AM)67% (Dec 16, 2:54 PM)29.47 "Hg (Dec 11, 6:54 AM)
Average54 °F93%29.99 "Hg
* Reported Dec 3 11:54 PM — Dec 18 11:54 PM, Vallejo, Weather by CustomWeather, © 2014

Note: Actual official high and low records may vary slightly from our data, if they occured in-between our weather recording intervals... More about our weather records

Advertising

Vallejo weather history for previous 24 hours

 ConditionsComfort  
Time TempWeatherWind HumidityBarometerVisibility
11:54 PM
Dec 18
53 °FMostly cloudy.6 mph89%30.13 "Hg8 mi
10:54 PM50 °FPassing clouds.5 mph96%30.14 "Hg7 mi
9:54 PM51 °FMostly cloudy.No wind96%30.14 "Hg8 mi
8:54 PM53 °FPassing clouds.3 mph89%30.14 "Hg9 mi
7:54 PM53 °FPartly cloudy.5 mph89%30.12 "Hg10 mi
6:54 PM51 °FPassing clouds.3 mph92%30.12 "Hg9 mi
5:54 PM53 °FPassing clouds.8 mph86%30.12 "Hg10 mi
4:54 PM54 °FOvercast.9 mph86%30.12 "Hg10 mi
3:54 PM54 °FPassing clouds.8 mph83%30.12 "Hg10 mi
2:54 PM55 °FBroken clouds.8 mph83%30.11 "Hg10 mi
1:54 PM56 °FMore clouds than sun.13 mph84%30.11 "Hg10 mi
12:54 PM55 °FOvercast.10 mph87%30.13 "Hg10 mi
11:54 AM55 °FLight rain. Overcast.7 mph87%30.14 "Hg10 mi
10:54 AM54 °FLight rain. Overcast.No wind90%30.17 "Hg10 mi
9:54 AM53 °FLight rain. Mostly cloudy.6 mph93%30.15 "Hg10 mi
8:54 AM52 °FLight rain. Mostly cloudy.5 mph93%30.13 "Hg10 mi
7:54 AM50 °FLight rain. Overcast.5 mph96%30.11 "Hg10 mi
6:54 AM51 °FLight rain. Overcast.7 mph89%30.09 "Hg9 mi
5:54 AM51 °FOvercast.7 mph89%30.08 "Hg10 mi
4:54 AM50 °FLight rain. Overcast.9 mph93%30.07 "Hg10 mi
3:54 AM50 °FLight rain. Overcast.13 mph93%30.06 "Hg10 mi
2:54 AM50 °FLight rain. Overcast.13 mph93%30.05 "Hg10 mi
1:54 AM50 °FLight rain. Overcast.14 mph93%30.05 "Hg10 mi
Weather by CustomWeather, © 2014

See weather overviewHow to use our weather pages